Terminal Aerodrome Forecast
Issued by NWS

Current Version | Previous Version | Graphics & Text | Print | Product List | Glossary On
Versions: 1 2 3 4 5 6 7 8 9 10 11 12 13 14 15 16 17 18 19 20
298
FTUS41 KPBZ 121340 AAA
TAFMGW
TAF AMD
KMGW 121340Z 1214/1312 VRB03KT P6SM BKN100
     FM122000 25008KT 5SM -SN BKN027
     FM130300 27011G19KT 4SM -SHSN OVC015 PROB30 1303/1306 1SM -SHSN
      OVC007=

USA.gov is the U.S. government's official web portal to all federal, state and local government web resources and services.